N3159J KBZN-KBZN

Flight info

Callsign N3159J
Flight time 0h 10m
Altitude VFR
Route //PATTERN//
Aircraft

Departure

Time 2026-04-29 17:27
Airport Bozeman Yellowstone International Airport (KBZN)

Arrival

Time 2026-04-29 17:37
Airport Bozeman Yellowstone International Airport (KBZN)
Time Latitude Longitude Altitude Speed Heading
2026-04-29 17:22 45.77276 -111.15165 4464 ft 0 kts 136°
2026-04-29 17:22 45.77275 -111.15162 4464 ft 0 kts 130°
2026-04-29 17:22 45.77269 -111.15148 4464 ft 3 kts 110°
2026-04-29 17:22 45.77274 -111.15087 4464 ft 8 kts 69°
2026-04-29 17:23 45.77316 -111.15002 4462 ft 11 kts 87°
2026-04-29 17:23 45.77266 -111.14915 4463 ft 12 kts 135°
2026-04-29 17:23 45.77194 -111.14816 4464 ft 15 kts 136°
2026-04-29 17:23 45.77108 -111.14694 4464 ft 18 kts 135°
2026-04-29 17:24 45.77011 -111.14558 4465 ft 19 kts 137°
2026-04-29 17:24 45.76925 -111.14426 4468 ft 15 kts 103°
2026-04-29 17:24 45.76975 -111.14314 4465 ft 5 kts 45°
2026-04-29 17:24 45.76980 -111.14306 4465 ft 0 kts 45°
2026-04-29 17:25 45.76998 -111.14281 4465 ft 11 kts 44°
2026-04-29 17:25 45.77100 -111.14274 4463 ft 25 kts 316°
2026-04-29 17:25 45.77338 -111.14603 4463 ft 63 kts 313°
2026-04-29 17:25 45.77678 -111.15079 4536 ft 72 kts 316°
2026-04-29 17:26 45.78046 -111.15588 4650 ft 73 kts 315°
2026-04-29 17:26 45.78402 -111.16071 4804 ft 67 kts 310°
2026-04-29 17:26 45.78424 -111.16692 4886 ft 73 kts 229°
2026-04-29 17:26 45.77999 -111.17100 5007 ft 72 kts 210°
2026-04-29 17:27 45.77556 -111.17401 5142 ft 70 kts 184°
2026-04-29 17:27 45.77132 -111.17040 5197 ft 78 kts 129°
2026-04-29 17:27 45.76786 -111.16439 5297 ft 79 kts 128°
2026-04-29 17:27 45.76421 -111.15827 5374 ft 81 kts 131°
2026-04-29 17:28 45.76075 -111.15253 5300 ft 73 kts 131°
2026-04-29 17:28 45.75862 -111.14603 5153 ft 74 kts 83°
2026-04-29 17:28 45.76084 -111.13957 4991 ft 74 kts 45°
2026-04-29 17:28 45.76490 -111.13628 4825 ft 73 kts 345°
2026-04-29 17:29 45.76922 -111.14022 4567 ft 72 kts 315°
2026-04-29 17:29 45.77249 -111.14479 4461 ft 53 kts 314°
2026-04-29 17:29 45.77505 -111.14838 4457 ft 62 kts 315°
2026-04-29 17:29 45.77839 -111.15299 4544 ft 69 kts 314°
2026-04-29 17:30 45.78188 -111.15785 4652 ft 72 kts 315°
2026-04-29 17:30 45.78547 -111.16277 4770 ft 71 kts 319°
2026-04-29 17:30 45.78595 -111.16894 4847 ft 76 kts 221°
2026-04-29 17:30 45.78159 -111.17300 4972 ft 74 kts 212°
2026-04-29 17:31 45.77682 -111.17417 5049 ft 79 kts 145°
2026-04-29 17:31 45.77312 -111.16840 5176 ft 74 kts 128°
2026-04-29 17:31 45.76973 -111.16251 5257 ft 79 kts 129°
2026-04-29 17:31 45.76592 -111.15672 5337 ft 81 kts 132°
2026-04-29 17:32 45.76225 -111.15083 5254 ft 75 kts 128°
2026-04-29 17:32 45.76096 -111.14428 5054 ft 73 kts 68°
2026-04-29 17:32 45.76449 -111.13940 4830 ft 72 kts 32°
2026-04-29 17:32 45.76895 -111.14002 4574 ft 71 kts 321°
2026-04-29 17:33 45.77217 -111.14436 4462 ft 52 kts 314°
2026-04-29 17:33 45.77459 -111.14780 4457 ft 60 kts 315°
2026-04-29 17:33 45.77799 -111.15244 4526 ft 71 kts 317°
2026-04-29 17:33 45.78164 -111.15745 4626 ft 73 kts 315°
2026-04-29 17:34 45.78483 -111.16275 4765 ft 70 kts 292°
2026-04-29 17:34 45.78287 -111.16830 4842 ft 75 kts 197°
2026-04-29 17:34 45.77848 -111.17176 4971 ft 71 kts 193°
2026-04-29 17:34 45.77442 -111.16834 5039 ft 77 kts 131°
2026-04-29 17:35 45.76783 -111.15876 5158 ft 82 kts 135°
2026-04-29 17:35 45.76255 -111.15138 5308 ft 79 kts 136°
2026-04-29 17:35 45.75837 -111.14568 5337 ft 87 kts 135°
2026-04-29 17:36 45.75773 -111.13802 5243 ft 85 kts 49°
2026-04-29 17:36 45.76244 -111.13432 4978 ft 78 kts
2026-04-29 17:36 45.76699 -111.13724 4692 ft 71 kts 322°
2026-04-29 17:36 45.77042 -111.14191 4486 ft 63 kts 316°
2026-04-29 17:37 45.77301 -111.14551 4460 ft 37 kts 318°
2026-04-29 17:37 45.77459 -111.14777 4457 ft 29 kts 308°
2026-04-29 17:37 45.77479 -111.14977 4459 ft 18 kts 228°
2026-04-29 17:37 45.77391 -111.15105 4462 ft 17 kts 227°
2026-04-29 17:38 45.77368 -111.15214 4462 ft 8 kts 193°
2026-04-29 17:38 45.77358 -111.15208 4462 ft 0 kts 130°